Change the Weather History Date:

Wednesday, June 12, 2013

  Actual Average (KTCM) Record (KTCM)
Temperature  
Mean Temperature 57 °F -  
Max Temperature 64 °F 67 °F 84 °F (1999)
Min Temperature 50 °F 47 °F 37 °F (2007)
Degree Days  
Heating Degree Days 8    
Growing Degree Days 7 (Base 50)    
Moisture  
Dew Point 47 °F    
Average Humidity 77    
Maximum Humidity 100    
Minimum Humidity 45    
Precipitation  
Precipitation 0.03 in - - ()
Sea Level Pressure  
Sea Level Pressure 30.15 in    
Wind  
Wind Speed 1 mph (WSW)    
Max Wind Speed 10 mph    
Max Gust Speed 16 mph    
Visibility 10 miles    
Events Rain    
Averages and records for this station are not official NWS values.
T = Trace of Precipitation, MM = Missing Value Source: NWS Daily Summary

Daily Weather History Graph

Daily Weather History Graph

Search for Another Location

Airport or City:

Trip Planner

Search our weather history database for the weather conditions in past years. The results will help you decide how hot, cold, wet, or windy it might be!

Date:

Astronomy

Jun. 12, 2013 Rise Set
Actual Time 5:13 AM PDT 9:05 PM PDT
Civil Twilight 4:33 AM PDT 9:45 PM PDT
Nautical Twilight 3:39 AM PDT 10:39 PM PDT
Astronomical Twilight 2:18 AM PDT 12:00 AM PDT
Moon 9:09 AM PDT (6/12) 11:29 PM PDT (6/12)
Length of Visible Light 17h 11m
Length of Day
15h 51m
Waxing Crescent, 15% of the Moon is Illuminated
Jun 12
Waxing Crescent
Jun 16
First Quarter
Jun 23
Full
Jun 29
Last Quarter
Jul 8
New

Hourly Weather History & Observations

Time (PDT) Temp. Dew Point Humidity Pressure Visibility Wind Dir Wind Speed Gust Speed Precip Events Conditions
12:15 AM 50.0 °F 46.4 °F 87% 30.14 in 10.0 mi Calm Calm - N/A   Mostly Cloudy
12:35 AM 50.0 °F 46.4 °F 87% 30.15 in 10.0 mi Calm Calm - N/A   Mostly Cloudy
12:55 AM 50.0 °F 46.4 °F 87% 30.15 in 10.0 mi Calm Calm - N/A   Scattered Clouds
1:15 AM 50.0 °F 46.4 °F 87% 30.15 in 10.0 mi Calm Calm - N/A   Mostly Cloudy
1:35 AM 50.0 °F 46.4 °F 87% 30.15 in 10.0 mi Calm Calm - N/A   Mostly Cloudy
1:55 AM 50.0 °F 46.4 °F 87% 30.15 in 10.0 mi Calm Calm - N/A   Scattered Clouds
2:15 AM 50.0 °F 46.4 °F 87% 30.14 in 10.0 mi Calm Calm - N/A   Mostly Cloudy
2:35 AM 50.0 °F 46.4 °F 87% 30.14 in 10.0 mi Calm Calm - N/A   Overcast
2:55 AM 50.0 °F 46.4 °F 87% 30.14 in 10.0 mi Calm Calm - N/A   Overcast
3:15 AM 50.0 °F 46.4 °F 87% 30.14 in 10.0 mi Calm Calm - N/A   Mostly Cloudy
3:35 AM 50.0 °F 46.4 °F 87% 30.14 in 10.0 mi Calm Calm - N/A   Overcast
3:55 AM 50.0 °F 46.4 °F 87% 30.14 in 10.0 mi Calm Calm - N/A   Overcast
4:15 AM 50.0 °F 48.2 °F 94% 30.14 in 10.0 mi Calm Calm - N/A   Mostly Cloudy
4:35 AM 50.0 °F 46.4 °F 87% 30.14 in 10.0 mi Calm Calm - N/A   Overcast
4:55 AM 50.0 °F 46.4 °F 87% 30.14 in 10.0 mi Calm Calm - N/A   Overcast
5:15 AM 50.0 °F 46.4 °F 87% 30.14 in 10.0 mi Calm Calm - N/A   Overcast
5:35 AM 50.0 °F 46.4 °F 87% 30.14 in 10.0 mi Calm Calm - N/A   Overcast
5:55 AM 50.0 °F 46.4 °F 87% 30.15 in 10.0 mi Calm Calm - N/A   Overcast
6:15 AM 50.0 °F 48.2 °F 94% 30.15 in 10.0 mi Calm Calm - N/A   Overcast
6:35 AM 50.0 °F 48.2 °F 94% 30.15 in 10.0 mi Calm Calm - N/A   Overcast
6:55 AM 51.8 °F 48.2 °F 88% 30.15 in 10.0 mi Calm Calm - N/A   Overcast
7:15 AM 51.8 °F 48.2 °F 88% 30.15 in 10.0 mi Calm Calm - N/A   Overcast
7:35 AM 53.6 °F 46.4 °F 77% 30.15 in 10.0 mi Calm Calm - N/A   Mostly Cloudy
7:55 AM 53.6 °F 46.4 °F 77% 30.15 in 10.0 mi Calm Calm - N/A   Mostly Cloudy
8:15 AM 53.6 °F 46.4 °F 77% 30.15 in 10.0 mi Calm Calm - N/A   Mostly Cloudy
8:35 AM 55.4 °F 46.4 °F 72% 30.15 in 10.0 mi Calm Calm - N/A   Mostly Cloudy
8:55 AM 57.2 °F 46.4 °F 67% 30.15 in 10.0 mi Calm Calm - N/A   Mostly Cloudy
9:15 AM 55.4 °F 46.4 °F 72% 30.15 in 10.0 mi West 5.8 mph - N/A   Mostly Cloudy
9:35 AM 55.4 °F 44.6 °F 67% 30.15 in 10.0 mi Calm Calm - N/A   Mostly Cloudy
9:55 AM 57.2 °F 46.4 °F 67% 30.15 in 10.0 mi Calm Calm - N/A   Scattered Clouds
10:15 AM 57.2 °F 44.6 °F 63% 30.15 in 10.0 mi Calm Calm - N/A   Partly Cloudy
10:35 AM 59.0 °F 44.6 °F 59% 30.15 in 10.0 mi Calm Calm - N/A   Scattered Clouds
10:55 AM 59.0 °F 44.6 °F 59% 30.15 in 10.0 mi Calm Calm - N/A   Mostly Cloudy
11:15 AM 62.6 °F 44.6 °F 52% 30.14 in 10.0 mi SSW 3.5 mph - N/A   Mostly Cloudy
11:35 AM 59.0 °F 44.6 °F 59% 30.14 in 10.0 mi West 3.5 mph - N/A   Mostly Cloudy
11:55 AM 59.0 °F 42.8 °F 55% 30.15 in 10.0 mi WSW 8.1 mph - N/A   Overcast
12:15 PM 59.0 °F 44.6 °F 59% 30.15 in 10.0 mi West 8.1 mph - N/A   Mostly Cloudy
12:35 PM 64.4 °F 46.4 °F 52% 30.15 in 10.0 mi SW 4.6 mph - N/A   Scattered Clouds
12:55 PM 62.6 °F 44.6 °F 52% 30.15 in 10.0 mi WSW 6.9 mph - N/A   Partly Cloudy
1:15 PM 62.6 °F 46.4 °F 55% 30.14 in 10.0 mi Calm Calm - N/A   Partly Cloudy
1:35 PM 64.4 °F 42.8 °F 45% 30.14 in 10.0 mi WSW 5.8 mph - N/A   Partly Cloudy
1:55 PM 62.6 °F 44.6 °F 52% 30.14 in 10.0 mi Calm Calm - N/A   Scattered Clouds
2:15 PM 62.6 °F 44.6 °F 52% 30.14 in 10.0 mi West 3.5 mph - N/A   Scattered Clouds
2:35 PM 64.4 °F 42.8 °F 45% 30.14 in 10.0 mi Calm Calm - N/A   Scattered Clouds
2:55 PM 64.4 °F 46.4 °F 52% 30.14 in 10.0 mi West 6.9 mph - N/A   Scattered Clouds
3:15 PM 62.6 °F 46.4 °F 55% 30.14 in 10.0 mi Calm Calm - N/A   Mostly Cloudy
3:35 PM 59.0 °F 46.4 °F 63% 30.15 in 10.0 mi West 8.1 mph - N/A   Scattered Clouds
3:55 PM 57.2 °F 50.0 °F 77% 30.16 in 10.0 mi West 10.4 mph - N/A Rain Light Rain
4:15 PM 59.0 °F 48.2 °F 67% 30.16 in 10.0 mi WNW 3.5 mph - N/A   Scattered Clouds
4:35 PM 59.0 °F 48.2 °F 67% 30.16 in 10.0 mi West 10.4 mph 16.1 mph N/A   Mostly Cloudy
4:55 PM 59.0 °F 48.2 °F 67% 30.16 in 10.0 mi WNW 4.6 mph - N/A   Scattered Clouds
5:15 PM 59.0 °F 48.2 °F 67% 30.16 in 10.0 mi West 8.1 mph - N/A   Mostly Cloudy
5:35 PM 57.2 °F 50.0 °F 77% 30.16 in 10.0 mi Calm Calm - N/A   Mostly Cloudy
5:55 PM 57.2 °F 50.0 °F 77% 30.16 in 10.0 mi Calm Calm - N/A Rain Light Rain
6:15 PM 57.2 °F 50.0 °F 77% 30.15 in 10.0 mi SW 4.6 mph - N/A   Scattered Clouds
6:35 PM 57.2 °F 48.2 °F 72% 30.15 in 10.0 mi Calm Calm - N/A   Mostly Cloudy
6:55 PM 57.2 °F 48.2 °F 72% 30.15 in 10.0 mi Calm Calm - N/A   Mostly Cloudy
7:15 PM 57.2 °F 48.2 °F 72% 30.16 in 10.0 mi Calm Calm - N/A   Mostly Cloudy
7:35 PM 53.6 °F 53.6 °F 100% 30.16 in 5.0 mi Calm Calm - 0.02 in Rain Light Rain
7:55 PM 53.6 °F 51.8 °F 94% 30.16 in 10.0 mi Calm Calm - 0.03 in   Mostly Cloudy
8:15 PM 53.6 °F 51.8 °F 94% 30.16 in 10.0 mi Calm Calm - N/A   Mostly Cloudy
8:35 PM 53.6 °F 50.0 °F 88% 30.16 in 10.0 mi Calm Calm - N/A   Scattered Clouds
8:55 PM 53.6 °F 51.8 °F 94% 30.16 in 10.0 mi Calm Calm - N/A   Mostly Cloudy
9:15 PM 53.6 °F 51.8 °F 94% 30.16 in 10.0 mi Calm Calm - N/A   Overcast
9:35 PM 53.6 °F 51.8 °F 94% 30.16 in 10.0 mi Calm Calm - N/A   Mostly Cloudy
9:55 PM 53.6 °F 50.0 °F 88% 30.17 in 10.0 mi Calm Calm - N/A   Mostly Cloudy
10:15 PM 53.6 °F 50.0 °F 88% 30.17 in 10.0 mi Calm Calm - N/A   Mostly Cloudy
10:35 PM 53.6 °F 50.0 °F 88% 30.17 in 10.0 mi Calm Calm - N/A   Mostly Cloudy
10:55 PM 53.6 °F 50.0 °F 88% 30.17 in 10.0 mi Calm Calm - N/A   Mostly Cloudy
11:15 PM 51.8 °F 50.0 °F 94% 30.17 in 10.0 mi Calm Calm - N/A   Mostly Cloudy
11:35 PM 51.8 °F 50.0 °F 94% 30.17 in 10.0 mi Calm Calm - N/A   Mostly Cloudy
11:55 PM 51.8 °F 50.0 °F 94% 30.17 in 10.0 mi Calm Calm - N/A   Overcast